Location: Zapote
(9.9191°N, 84.0597°W)
Time: 15:08:35
(UTC-06:00)

Courier 1B Rocket - Pass Details

Date: 06 March 2021
Orbit: 920 x 1202 km, 28.2° (Epoch: 11 April)

Event Time Altitude Azimuth Distance (km) Brightness Sun altitude
Rises 18:19:47 0° 306° (NW) 4,014 9.1 -8.9°
Reaches altitude 10° 18:22:45 10° 313° (NW) 3,080 8.3 -9.6°
Maximum altitude 18:30:00 43° 23° (NNE) 1,612 6.0 -11.4°
Enters shadow 18:35:52 16° 88° (E) 2,677 6.6 -12.8°
